Location: Appeville
(49.3218°N, 1.3427°W)
Time: 20:03:30
(UTC+00:00)

Okean 1 - Pass Details

Date: 08 December 2019
Orbit: 540 x 554 km, 82.5° (Epoch: 28 January)

Event Time Altitude Azimuth Distance (km) Brightness Sun altitude
Exits shadow 06:34:59 11° 326° (NNW) 1,735 5.4 -11.2°
Maximum altitude 06:38:07 27° 270° (W) 1,065 4.3 -10.7°
Drops below altitude 10° 06:41:29 10° 212° (SSW) 1,803 5.9 -10.2°
Sets 06:43:51 0° 200° (SSW) 2,691 6.9 -9.8°
